GW2437 Weather Reports


time (UTC)temp
C
wind
direction
speed
KPH
gust
KPH
rain 1hr
cm
rain 24hr
cm
rain mn
cm
humidity
%
barometer
mb
20260510020317 21 43 4.8 4.8 2.29 0.56 0.56 99 1013.1
20260510015813 22 67 1.6 3.2 2.16 0.48 0.48 99 1013.1
20260510015310 22 325 8.0 12.9 0.48 0.18 0.18 99 1012.9
20260510014805 23 345 3.2 4.8 0.30 0.13 0.13 99 1012.4
20260510014302 23 42 1.6 4.8 0.00 0.08 0.08 99 1012.1
20260510013758 23 53 0.0 3.2 0.00 0.08 0.08 99 1012.1
20260510013254 23 43 0.0 1.6 0.00 0.08 0.08 99 1011.8
20260510012749 23 50 1.6 4.8 0.00 0.08 0.08 99 1011.7
20260510012244 23 90 1.6 3.2 0.13 0.08 0.08 99 1011.5
20260510011743 23 57 1.6 3.2 0.13 0.08 0.08 99 1011.5
20260510011239 23 58 0.0 3.2 0.18 0.05 0.05 99 1011.3
20260510010737 23 141 6.4 9.7 0.18 0.05 0.05 98 1011.3
20260510010233 23 106 1.6 3.2 0.13 0.03 0.03 98 1010.9
20260510005730 24 77 0.0 3.2 0.13 0.03 0.03 97 1011.1
20260510005226 24 73 1.6 4.8 0.00 0.00 0.00 96 1011.0
20260510004724 24 164 3.2 4.8 0.00 0.00 0.00 95 1010.9
20260510004222 25 58 3.2 8.0 0.00 0.00 0.00 94 1011.1
20260510003719 25 81 3.2 4.8 0.00 0.00 0.00 94 1010.9
20260510003215 25 70 0.0 4.8 0.00 0.00 0.00 94 1010.7
20260510002714 25 125 3.2 12.9 0.00 0.00 0.00 94 1010.3
20260510002212 25 66 3.2 8.0 0.00 0.00 0.00 94 1010.2
20260510001709 25 68 0.0 3.2 0.00 0.00 0.00 94 1010.0
20260510001207 25 61 1.6 3.2 0.00 0.00 0.00 95 1010.0
20260510000702 25 65 1.6 3.2 0.00 0.00 0.00 95 1009.8
20260510000200 25 18 1.6 3.2 0.00 0.00 0.00 95 1009.8
20260509235656 25 36 1.6 9.7 0.00 0.00 0.00 95 1009.7
20260509235152 25 114 1.6 3.2 0.00 0.00 0.00 95 1009.2
20260509234649 25 66 1.6 4.8 0.00 0.00 0.00 95 1009.2
20260509234146 25 114 1.6 3.2 0.00 0.00 0.00 95 1009.4
20260509233644 25 97 4.8 8.0 0.00 0.00 0.00 94 1009.3
20260509233141 25 87 1.6 3.2 0.00 0.00 0.00 94 1009.2
20260509232637 25 93 1.6 9.7 0.00 0.00 0.00 93 1009.1
20260509232134 25 53 4.8 8.0 0.00 0.00 0.00 92 1009.4
20260509231631 25 160 4.8 20.9 0.00 0.00 0.00 92 1009.6
20260509231128 25 76 3.2 8.0 0.00 0.00 0.00 92 1009.4
20260509230625 25 84 0.0 3.2 0.00 0.00 0.00 93 1009.2
20260509230122 25 83 0.0 4.8 0.00 0.00 0.00 93 1009.4
20260509225618 25 80 1.6 3.2 0.00 0.00 0.00 92 1009.4
20260509225113 25 64 1.6 4.8 0.00 0.00 0.00 91 1009.4
20260509224609 25 91 4.8 4.8 0.00 0.00 0.00 90 1009.2
20260509224106 25 82 1.6 8.0 0.00 0.00 0.00 88 1009.3
20260509223603 25 93 4.8 4.8 0.00 0.00 0.00 87 1009.3
20260509223101 25 71 3.2 4.8 0.00 0.00 0.00 88 1009.3
20260509222557 26 114 1.6 4.8 0.00 0.00 0.00 90 1009.0
20260509222053 26 54 3.2 8.0 0.00 0.00 0.00 91 1009.1
20260509221548 26 74 0.0 3.2 0.00 0.00 0.00 91 1009.0
20260509221045 26 124 3.2 4.8 0.00 0.00 0.00 91 1008.8
20260509220541 26 60 1.6 8.0 0.00 0.00 0.00 92 1008.8
20260509220037 26 21 1.6 4.8 0.00 0.00 0.00 92 1008.7
20260509215532 26 99 4.8 8.0 0.00 0.00 0.00 90 1008.9
20260509215030 27 88 3.2 8.0 0.00 0.00 0.00 89 1008.6
20260509214527 27 62 1.6 3.2 0.00 0.00 0.00 88 1008.6
20260509214024 27 99 1.6 4.8 0.00 0.00 0.00 88 1008.7
20260509213520 27 149 1.6 8.0 0.00 0.00 0.00 88 1008.6
20260509213017 27 52 3.2 8.0 0.00 0.00 0.00 87 1008.4
20260509212514 28 16 1.6 3.2 0.00 0.00 0.00 85 1008.1
20260509212011 30 82 3.2 8.0 0.00 0.00 0.00 78 1008.3
20260509211506 31 337 1.6 1.6 0.00 0.00 0.00 75 1008.2
20260509211003 31 40 1.6 1.6 0.00 0.00 0.00 72 1008.3
20260509210500 31 249 1.6 3.2 0.00 0.00 0.00 72 1008.4
20260509205956 31 231 4.8 4.8 0.00 0.00 0.00 72 1008.4
20260509205450 31 233 0.0 3.2 0.00 0.00 0.00 73 1008.3
20260509204946 31 168 3.2 4.8 0.00 0.00 0.00 73 1008.2
20260509204443 31 34 1.6 1.6 0.00 0.00 0.00 71 1008.4
20260509203940 31 14 0.0 3.2 0.00 0.00 0.00 73 1008.3
20260509203435 31 310 1.6 3.2 0.00 0.00 0.00 74 1008.3
20260509202933 31 358 3.2 4.8 0.00 0.00 0.00 75 1008.5
20260509202429 31 37 0.0 4.8 0.00 0.00 0.00 73 1008.5
20260509201924 31 348 6.4 8.0 0.00 0.00 0.00 76 1008.3
20260509201420 31 344 1.6 4.8 0.00 0.00 0.00 76 1008.5
20260509200917 31 346 4.8 9.7 0.00 0.00 0.00 76 1008.8
20260509200417 31 1 1.6 1.6 0.00 0.00 0.00 77 1008.7
20260509195913 30 1 1.6 3.2 0.00 0.00 0.00 80 1009.0
20260509195408 30 353 3.2 3.2 0.00 0.00 0.00 79 1008.9
20260509194903 30 255 1.6 3.2 0.00 0.00 0.00 80 1009.1
20260509194359 30 198 1.6 4.8 0.00 0.00 0.00 80 1008.9
20260509193856 30 82 0.0 3.2 0.00 0.00 0.00 80 1009.1
20260509193356 30 127 1.6 3.2 0.00 0.00 0.00 79 1009.2
20260509192852 30 92 1.6 4.8 0.00 0.00 0.00 81 1009.2
20260509192348 30 2 1.6 8.0 0.00 0.00 0.00 83 1009.2
20260509191844 30 219 3.2 3.2 0.00 0.00 0.00 81 1009.3
20260509191340 30 356 0.0 1.6 0.00 0.00 0.00 81 1009.3
20260509190836 30 2 3.2 4.8 0.00 0.00 0.00 84 1009.4
20260509190333 28 50 0.0 1.6 0.00 0.00 0.00 86 1009.7
20260509185830 28 107 0.0 3.2 0.00 0.00 0.00 85 1009.3
20260509185327 28 14 3.2 3.2 0.00 0.00 0.00 87 1009.7
20260509184824 28 28 1.6 1.6 0.00 0.00 0.00 87 1009.7
20260509184321 28 336 4.8 4.8 0.00 0.00 0.00 87 1010.0
20260509183818 28 7 3.2 3.2 0.00 0.00 0.00 87 1009.7
20260509183313 28 24 0.0 1.6 0.00 0.00 0.00 86 1009.7
20260509182809 29 20 1.6 1.6 0.00 0.00 0.00 86 1009.7
20260509182307 28 11 3.2 3.2 0.00 0.00 0.00 85 1009.8
20260509181803 28 337 1.6 4.8 0.00 0.00 0.00 85 1009.9
20260509181301 28 332 4.8 4.8 0.00 0.00 0.00 85 1010.0
20260509180758 28 323 1.6 1.6 0.00 0.00 0.00 86 1010.1
20260509180254 28 62 0.0 1.6 0.00 0.00 0.00 87 1010.0
20260509175750 28 58 0.0 3.2 0.00 0.00 0.00 87 1010.2
20260509175247 28 343 3.2 4.8 0.00 0.00 0.00 87 1010.4
20260509174743 28 358 1.6 3.2 0.00 0.00 0.00 87 1010.3
20260509174238 28 154 3.2 4.8 0.00 0.00 0.00 88 1010.5
20260509173735 28 38 0.0 0.0 0.00 0.00 0.00 86 1010.7
20260509173230 28 23 1.6 3.2 0.00 0.00 0.00 87 1010.8
20260509172727 28 68 0.0 1.6 0.00 0.00 0.00 87 1010.5
20260509172223 28 56 1.6 1.6 0.00 0.00 0.00 87 1010.7
20260509171718 28 76 0.0 1.6 0.00 0.00 0.00 88 1010.6
20260509171215 27 54 0.0 3.2 0.00 0.00 0.00 90 1010.6
20260509170712 27 39 1.6 4.8 0.00 0.00 0.00 91 1010.6
20260509170208 28 29 1.6 3.2 0.00 0.00 0.00 90 1010.6
20260509165707 28 54 0.0 3.2 0.00 0.00 0.00 90 1010.6
20260509165202 28 2 4.8 4.8 0.00 0.00 0.00 90 1010.6
20260509164658 28 55 1.6 3.2 0.00 0.00 0.00 90 1010.6
20260509164154 27 66 1.6 3.2 0.00 0.00 0.00 91 1010.6
20260509163652 27 62 0.0 1.6 0.00 0.00 0.00 92 1010.5
20260509163148 27 48 0.0 1.6 0.00 0.00 0.00 92 1010.6
20260509162645 27 40 0.0 3.2 0.00 0.00 0.00 92 1010.8
20260509162141 27 56 1.6 1.6 0.00 0.00 0.00 91 1010.8
20260509161637 27 72 0.0 1.6 0.00 0.00 0.00 92 1010.9
20260509161132 27 89 1.6 3.2 0.00 0.00 0.00 93 1011.0
20260509160628 27 348 4.8 4.8 0.00 0.00 0.00 94 1010.9
20260509160124 26 71 0.0 0.0 0.00 0.00 0.00 96 1010.8
20260509155621 26 80 0.0 1.6 0.00 0.00 0.00 97 1011.0
20260509155116 25 63 0.0 0.0 0.00 0.00 0.00 99 1010.9
20260509154612 25 108 1.6 1.6 0.00 0.00 0.00 99 1011.1
20260509154110 25 354 0.0 3.2 0.00 0.00 0.00 99 1011.0
20260509153607 25 89 0.0 1.6 0.00 0.00 0.00 99 1010.9
20260509153104 25 46 0.0 1.6 0.00 0.00 0.00 99 1010.9
20260509152600 25 41 1.6 3.2 0.00 0.00 0.00 99 1010.9
20260509152057 25 74 0.0 1.6 0.00 0.00 0.00 99 1010.9
20260509151553 25 48 0.0 1.6 0.00 0.00 0.00 99 1010.8
20260509151051 24 143 0.0 1.6 0.00 0.00 0.00 99 1010.7
20260509150548 24 70 1.6 1.6 0.00 0.00 0.00 99 1010.5
20260509150047 24 28 1.6 3.2 0.00 0.00 0.00 99 1010.4
20260509145542 24 117 0.0 1.6 0.00 0.00 0.00 99 1010.7
20260509145037 24 87 1.6 3.2 0.00 0.00 0.00 99 1010.7
20260509144534 24 99 0.0 0.0 0.00 0.00 0.00 99 1010.8
20260509144032 23 62 0.0 1.6 0.00 0.00 0.00 99 1010.8
20260509143528 23 45 0.0 0.0 0.00 0.00 0.00 99 1010.7
20260509143026 23 102 1.6 3.2 0.00 0.00 0.00 99 1010.4
20260509142521 24 66 0.0 0.0 0.00 0.00 0.00 99 1010.3
20260509142017 23 353 1.6 3.2 0.00 0.00 0.00 99 1010.5
20260509141514 23 45 1.6 4.8 0.00 0.00 0.00 99 1010.6
20260509141011 23 356 3.2 3.2 0.00 0.00 0.00 99 1010.5
20260509140508 23 358 4.8 4.8 0.00 0.00 0.00 99 1010.2
20260509140006 23 66 0.0 1.6 0.00 0.00 0.00 99 1010.4
20260509135502 23 39 0.0 3.2 0.00 0.00 0.00 99 1010.2
20260509135000 23 6 1.6 3.2 0.00 0.00 0.00 99 1010.3
20260509134457 23 48 0.0 0.0 0.00 0.00 0.00 99 1010.3
20260509133955 23 67 0.0 0.0 0.00 0.00 0.00 99 1010.4
20260509133451 23 59 0.0 1.6 0.00 0.00 0.00 99 1010.4
20260509132949 23 353 3.2 3.2 0.00 0.00 0.00 99 1010.5
20260509132447 23 0 3.2 3.2 0.00 0.00 0.00 99 1010.6
20260509131944 23 33 3.2 3.2 0.00 0.00 0.00 99 1010.6
20260509131441 23 14 1.6 3.2 0.00 0.00 0.00 99 1010.8
20260509130937 23 39 0.0 0.0 0.00 0.00 0.00 99 1010.5
20260509130432 23 47 0.0 0.0 0.00 0.00 0.00 99 1010.7
20260509125930 23 48 0.0 0.0 0.00 0.00 0.00 99 1010.7
20260509125427 22 47 0.0 0.0 0.00 0.00 0.00 99 1010.7
20260509124923 22 47 0.0 0.0 0.00 0.00 0.00 99 1010.8
20260509124420 22 47 0.0 0.0 0.00 0.00 0.00 99 1010.6
20260509123917 22 47 0.0 0.0 0.00 0.00 0.00 99 1010.5
20260509123415 22 47 0.0 0.0 0.00 0.00 0.00 99 1010.6
20260509122910 22 46 0.0 0.0 0.00 0.00 0.00 99 1010.4
20260509122408 22 51 0.0 0.0 0.00 0.00 0.00 99 1010.5
20260509121904 22 50 0.0 0.0 0.00 0.00 0.00 99 1010.4
20260509121401 22 52 0.0 0.0 0.00 0.00 0.00 99 1010.5
20260509120859 22 52 0.0 0.0 0.00 0.00 0.00 99 1010.5
20260509120357 22 50 0.0 0.0 0.00 0.00 0.00 99 1010.3
20260509115854 22 80 0.0 0.0 0.00 0.00 0.00 99 1010.3
20260509115352 22 80 0.0 0.0 0.00 0.00 0.00 99 1010.1
20260509114849 22 81 0.0 0.0 0.00 0.00 0.00 99 1010.2
20260509114348 22 82 0.0 0.0 0.00 0.00 0.00 99 1010.4
20260509113847 22 27 0.0 0.0 0.00 0.00 0.00 99 1010.2
20260509113344 22 33 0.0 0.0 0.00 0.00 0.00 99 1010.1
20260509112840 22 34 0.0 0.0 0.00 0.00 0.00 99 1010.1
20260509112337 22 42 0.0 0.0 0.00 0.00 0.00 99 1010.0
20260509111834 22 42 0.0 0.0 0.00 0.00 0.00 99 1010.2
20260509111331 22 41 0.0 0.0 0.00 0.00 0.00 99 1010.3
20260509110829 22 41 0.0 0.0 0.00 0.00 0.00 99 1010.4
20260509110325 22 44 0.0 0.0 0.00 0.00 0.00 99 1010.5
20260509105823 22 52 0.0 0.0 0.00 0.00 0.00 99 1010.5
20260509105321 22 52 0.0 0.0 0.00 0.00 0.00 99 1010.3
20260509104817 22 53 0.0 0.0 0.00 0.00 0.00 99 1010.3
20260509104314 22 25 0.0 0.0 0.00 0.00 0.00 99 1010.5
20260509103812 22 27 0.0 0.0 0.00 0.00 0.00 99 1010.3
20260509103309 22 34 0.0 0.0 0.00 0.00 0.00 99 1010.2
20260509102808 22 27 0.0 0.0 0.00 0.00 0.00 99 1009.8
20260509102306 22 36 0.0 0.0 0.00 0.00 0.00 99 1009.7
20260509101800 22 35 0.0 0.0 0.00 0.00 0.00 99 1009.9
20260509101257 22 36 0.0 0.0 0.00 0.00 0.00 99 1009.8
20260509100754 22 33 0.0 0.0 0.00 0.00 0.00 99 1009.8
20260509100252 22 31 1.6 1.6 0.00 0.00 0.00 99 1009.6
20260509095748 22 32 1.6 3.2 0.00 0.00 0.00 99 1009.6
20260509095245 22 52 0.0 0.0 0.00 0.00 0.00 99 1009.6
20260509094742 22 39 0.0 1.6 0.00 0.00 0.00 99 1009.4
20260509094239 23 93 0.0 0.0 0.00 0.00 0.00 99 1009.5
20260509093737 22 93 0.0 0.0 0.00 0.00 0.00 99 1009.3
20260509093234 22 93 0.0 0.0 0.00 0.00 0.00 99 1009.3
20260509092732 23 93 0.0 0.0 0.00 0.00 0.00 99 1009.3
20260509092230 23 93 0.0 0.0 0.00 0.00 0.00 99 1009.2
20260509091728 22 93 0.0 0.0 0.00 0.00 0.00 99 1009.2
20260509091223 22 93 0.0 0.0 0.00 0.00 0.00 99 1009.1
20260509090722 22 93 0.0 0.0 0.00 0.00 0.00 99 1009.2
20260509090218 22 93 0.0 0.0 0.00 0.00 0.00 99 1009.3
20260509085716 23 93 0.0 0.0 0.00 0.00 0.00 99 1009.3
20260509085213 22 93 0.0 0.0 0.00 0.00 0.00 99 1009.3
20260509084710 22 93 0.0 0.0 0.00 0.00 0.00 99 1009.4
20260509084206 23 93 0.0 0.0 0.00 0.00 0.00 99 1009.5
20260509083704 23 93 0.0 0.0 0.00 0.00 0.00 99 1009.8
20260509083201 23 93 0.0 0.0 0.00 0.00 0.00 99 1009.7
20260509082658 23 93 0.0 0.0 0.00 0.00 0.00 99 1009.9
20260509082154 23 92 0.0 0.0 0.00 0.00 0.00 99 1009.8
20260509081651 23 92 0.0 0.0 0.00 0.00 0.00 99 1010.0
20260509081148 23 92 0.0 0.0 0.00 0.00 0.00 99 1010.1
20260509080646 23 92 0.0 0.0 0.00 0.00 0.00 99 1010.1
20260509080144 23 93 0.0 0.0 0.00 0.00 0.00 99 1010.3
20260509075642 23 93 0.0 0.0 0.00 0.00 0.00 99 1010.4
20260509075140 23 93 0.0 0.0 0.00 0.00 0.00 99 1010.4
20260509074636 23 93 0.0 0.0 0.00 0.00 0.00 99 1010.2
20260509074133 23 81 0.0 0.0 0.00 0.00 0.00 99 1010.1
20260509073629 23 81 0.0 0.0 0.00 0.00 0.00 99 1010.0
20260509073125 23 81 0.0 0.0 0.00 0.00 0.00 99 1009.8
20260509072623 23 81 0.0 0.0 0.00 0.00 0.00 99 1010.1
20260509072120 23 81 0.0 0.0 0.00 0.00 0.00 99 1009.9
20260509071616 23 81 0.0 0.0 0.00 0.00 0.00 99 1009.8
20260509071113 23 81 0.0 0.0 0.00 0.00 0.00 99 1009.9
20260509070610 22 81 0.0 0.0 0.00 0.00 0.00 99 1009.9
20260509070107 22 81 0.0 0.0 0.00 0.00 0.00 99 1009.9
20260509065602 23 81 0.0 0.0 0.00 0.00 0.00 99 1010.1
20260509065058 23 81 0.0 0.0 0.00 0.00 0.00 99 1010.0
20260509064556 23 81 0.0 0.0 0.00 0.00 0.00 99 1009.8
20260509064054 22 81 0.0 0.0 0.00 0.00 0.00 99 1009.8
20260509063550 22 81 0.0 0.0 0.00 0.00 0.00 99 1010.0
20260509063047 22 81 0.0 0.0 0.00 0.00 0.00 99 1009.8
20260509062544 22 81 0.0 0.0 0.00 0.00 0.00 99 1010.0
20260509062042 22 81 0.0 0.0 0.00 0.00 0.00 99 1010.1
20260509061538 22 61 0.0 0.0 0.00 0.00 0.00 99 1010.3
20260509061036 22 94 0.0 0.0 0.00 0.00 0.00 99 1010.4
20260509060533 22 94 0.0 0.0 0.00 0.00 0.00 99 1010.7
20260509060029 22 107 0.0 0.0 0.00 0.00 0.00 99 1010.6
20260509055524 22 74 0.0 0.0 0.00 0.00 0.00 99 1010.7
20260509055021 22 68 0.0 0.0 0.00 0.00 0.00 99 1010.7
20260509054517 22 67 0.0 0.0 0.00 0.00 0.00 99 1010.7
20260509054016 22 68 0.0 0.0 0.00 0.00 0.00 99 1010.8
20260509053514 22 68 0.0 0.0 0.00 0.00 0.00 99 1010.8
20260509053010 22 71 0.0 0.0 0.00 0.00 0.00 99 1010.5
20260509052508 22 81 0.0 0.0 0.00 0.00 0.00 99 1010.6
20260509052006 22 81 0.0 0.0 0.00 0.00 0.00 99 1010.5
20260509051504 22 70 0.0 0.0 0.00 0.00 0.00 99 1010.7
20260509051000 22 74 0.0 0.0 0.00 0.00 0.00 99 1010.6
20260509050456 22 74 0.0 0.0 0.00 0.00 0.00 99 1010.9
20260509045953 22 74 0.0 0.0 0.00 1.83 1.83 99 1010.6
20260509045451 22 70 0.0 0.0 0.00 1.83 1.83 99 1010.7
20260509044948 22 84 0.0 0.0 0.00 1.83 1.83 99 1010.7
20260509044445 22 83 0.0 0.0 0.00 1.83 1.83 99 1010.8
20260509043942 22 82 0.0 0.0 0.00 1.83 1.83 99 1010.8
20260509043438 22 82 0.0 3.2 0.00 1.83 1.83 99 1010.8
20260509042933 22 58 0.0 0.0 0.00 1.83 1.83 99 1010.6
20260509042431 22 90 0.0 0.0 0.00 1.83 1.83 99 1010.6
20260509041927 22 82 0.0 0.0 0.00 1.83 1.83 99 1010.9
20260509041424 22 85 0.0 0.0 0.00 1.83 1.83 99 1010.8
20260509040922 22 54 0.0 1.6 0.00 1.83 1.83 99 1010.9
20260509040420 22 62 0.0 0.0 0.00 1.83 1.83 99 1010.7
20260509035916 22 76 0.0 0.0 0.00 1.83 1.83 99 1010.6
20260509035414 22 64 0.0 0.0 0.00 1.83 1.83 99 1010.7
20260509034910 22 64 0.0 0.0 0.00 1.83 1.83 99 1010.6
20260509034408 22 82 0.0 0.0 0.00 1.83 1.83 99 1010.4
20260509033905 22 72 0.0 1.6 0.00 1.83 1.83 99 1010.4
20260509033402 22 85 0.0 0.0 0.00 1.83 1.83 99 1010.7
20260509032858 22 59 0.0 0.0 0.00 1.83 1.83 99 1010.7
20260509032355 22 74 0.0 0.0 0.00 1.83 1.83 99 1010.5
20260509031853 22 77 0.0 0.0 0.00 1.83 1.83 99 1010.4
20260509031350 22 67 0.0 0.0 0.00 1.83 1.83 99 1010.8
20260509030848 22 66 0.0 0.0 0.00 1.83 1.83 99 1010.4
20260509030345 22 66 0.0 0.0 0.00 1.83 1.83 99 1010.6
20260509025837 22 66 0.0 0.0 0.00 1.83 1.83 99 1010.5
20260509025332 22 60 0.0 0.0 0.00 1.83 1.83 99 1010.8
20260509024827 22 61 0.0 0.0 0.00 1.83 1.83 99 1010.7
20260509024324 22 60 0.0 1.6 0.00 1.83 1.83 99 1010.5
20260509023821 22 54 0.0 0.0 0.00 1.83 1.83 99 1010.5
20260509023318 22 58 0.0 0.0 0.00 1.83 1.83 99 1010.3
20260509022815 22 60 0.0 0.0 0.00 1.83 1.83 99 1010.3
20260509022313 22 58 0.0 0.0 0.00 1.83 1.83 99 1010.4
20260509021809 22 58 0.0 0.0 0.00 1.83 1.83 99 1010.4
20260509021306 22 58 0.0 0.0 0.00 1.83 1.83 99 1010.3
20260509020803 22 52 0.0 0.0 0.00 1.83 1.83 99 1010.1